This demonstration page uses our WeatherBlox Daily Observations layout. Learn more.

Left ArrowRight Arrow

38.20091, -84.87328

Hourly Observations for February 23, 2020

Temp ( °F °C ) Dew Point ( °F °C ) Humidity (%) Winds ( mph kmh ) Pressure ( in mb ) Visibility ( mi km ) Precip ( " mm )
12:53 am 00:53 Clear 26 -3.3 16 -8.9 66 66 Calm 30.25 1025 10 16 0.00 0.00
1:53 am 01:53 Clear 25 -3.9 15 -9.4 66 66 Calm 30.24 1024 10 16 0.00 0.00
2:53 am 02:53 Clear 24 -4.4 16 -8.9 71 71 Calm 30.24 1024 10 16 0.00 0.00
3:53 am 03:53 Clear 24 -4.4 15 -9.4 68 68 Calm 30.22 1023 10 16 0.00 0.00
4:53 am 04:53 Clear 25 -3.9 16 -8.9 69 69 Calm 30.21 1023 10 16 0.00 0.00
5:53 am 05:53 Mostly Clear 27 -2.8 17 -8.3 66 66 Calm 30.21 1023 10 16 0.00 0.00
6:53 am 06:53 Mostly Cloudy 30 -1.1 17 -8.3 58 58 Calm 30.21 1023 10 16 0.00 0.00
7:53 am 07:53 Sunny 30 -1.1 19 -7.2 64 64 S 5 7 30.22 1023 10 16 0.00 0.00
8:53 am 08:53 Mostly Cloudy 39 3.9 22 -5.6 50 50 SSW 9 15 30.22 1023 10 16 0.00 0.00
9:53 am 09:53 Cloudy 43 6.1 23 -5 45 45 S 8 13 30.20 1023 10 16 0.00 0.00
10:53 am 10:53 Cloudy 49 9.4 24 -4.4 38 38 SSW 13 20 30.19 1022 10 16 0.00 0.00
11:53 am 11:53 Cloudy 51 10.6 26 -3.3 38 38 SW 15 24 30.17 1022 10 16 0.00 0.00
12:53 pm 12:53 Cloudy 53 11.7 24 -4.4 32 32 SSW 12 19 30.14 1021 10 16 0.00 0.00
1:37 pm 13:37 Hazy 56 13.3 25 -3.9 30 30 S 10 17 30.09 1019 2 3 0.00 0.00
1:53 pm 13:53 Mostly Cloudy 54 12.2 22 -5.6 29 29 SSW 9 15 30.10 1019 10 16 0.00 0.00
2:53 pm 14:53 Cloudy 58 14.4 22 -5.6 25 25 SSW 16 26 30.08 1019 10 16 0.00 0.00
3:53 pm 15:53 Cloudy 56 13.3 21 -6.1 26 26 SW 15 24 30.07 1018 10 16 0.00 0.00
4:53 pm 16:53 Cloudy 55 12.8 23 -5 29 29 SW 10 17 30.08 1019 10 16 0.00 0.00
5:53 pm 17:53 Sunny 52 11.1 26 -3.3 37 37 SSW 10 17 30.07 1018 10 16 0.00 0.00
6:53 pm 18:53 Mostly Clear 47 8.3 27 -2.8 46 46 SSW 7 11 30.09 1019 10 16 0.00 0.00
7:53 pm 19:53 Clear 46 7.8 27 -2.8 47 47 SSW 7 11 30.09 1019 10 16 0.00 0.00
8:53 pm 20:53 Clear 43 6.1 27 -2.8 53 53 SSW 6 9 30.07 1018 10 16 0.00 0.00
9:53 pm 21:53 Cloudy 45 7.2 29 -1.7 54 54 SSW 6 9 30.07 1018 10 16 0.00 0.00
10:53 pm 22:53 Clear 47 8.3 30 -1.1 52 52 SSW 8 13 30.06 1018 10 16 0.00 0.00
11:53 pm 23:53 Clear 47 8.3 31 -0.6 54 54 SW 7 11 30.05 1018 10 16 0.00 0.00

Powered by AerisWeather